This is the latest recevied weather packets stored in our database for station/object DL2AKT-20. If no packets are shown the sender has not sent any weather packets the latest 10 day(s).
| Time | Temp. | Humidity | Pressure | Rain* | Wind** | Luminosity | Snow |
|---|---|---|---|---|---|---|---|
| 1777883575 | 21.11° C | 37% | 1017.7 hPa | - | - | - | - |
| 1777882675 | 20.56° C | 37% | 1017.6 hPa | - | - | - | - |
| 1777881775 | 21.11° C | 38% | 1017.6 hPa | - | - | - | - |
| 1777879975 | 20° C | 38% | 1017.4 hPa | - | - | - | - |
| 1777879075 | 20° C | 39% | 1017.3 hPa | - | - | - | - |
| 1777878175 | 20° C | 40% | 1017.2 hPa | - | - | - | - |
| 1777877274 | 19.44° C | 39% | 1017.2 hPa | - | - | - | - |
| 1777876374 | 19.44° C | 40% | 1017.1 hPa | - | - | - | - |
| 1777875474 | 19.44° C | 39% | 1017.1 hPa | - | - | - | - |
| 1777874574 | 19.44° C | 39% | 1017 hPa | - | - | - | - |
| 1777873673 | 19.44° C | 39% | 1017 hPa | - | - | - | - |
| 1777872773 | 19.44° C | 39% | 1016.9 hPa | - | - | - | - |
| 1777871873 | 18.89° C | 40% | 1016.8 hPa | - | - | - | - |
| 1777870973 | 18.89° C | 40% | 1016.8 hPa | - | - | - | - |
| 1777870073 | 19.44° C | 40% | 1016.8 hPa | - | - | - | - |
| 1777869173 | 19.44° C | 40% | 1016.6 hPa | - | - | - | - |
| 1777869153 | 19.44° C | 40% | 1016.5 hPa | - | - | - | - |
| 1777868328 | 18.89° C | 42% | 1016.4 hPa | - | - | - | - |
| 1777868308 | 18.33° C | 42% | 1016.4 hPa | - | - | - | - |
| 1777868268 | 18.89° C | 42% | 1016.4 hPa | - | - | - | - |
| 1777868248 | 18.89° C | 42% | 1016.5 hPa | - | - | - | - |
| 1777868228 | 18.89° C | 42% | 1016.3 hPa | - | - | - | - |
| 1777868208 | 18.89° C | 41% | 1016.4 hPa | - | - | - | - |
| 1777868168 | 18.89° C | 41% | 1016.4 hPa | - | - | - | - |
| 1777868128 | 18.89° C | 41% | 1016.4 hPa | - | - | - | - |
* Rain since midnight (hover to see other rain measurements)
** Current wind speed in m/s (hover to see current wind gust speed)